[[{"header":{"parameterUnit":"m.s-1","parameterCategory":1,"la1":30.2992,"la2":30.254,"lo1":-89.0895,"lo2":-89.0443,"dy":0.0025,"dx":0.0025,"nx":19,"ny":19,"refTime":"2026-05-15T21:00:00:Z","depth":0,"parameterNumber":2,"parameterNumberName":"U-component_of_WINDS"},"data":[0,0,0,-3.7077,-3.7078,-3.7132,-3.7132,-3.7218,-3.7219,0,0,0,0,0,0,0,0,0,0,0,-3.7071,-3.7072,-3.7077,-3.7079,-3.7132,-3.7132,-3.7218,-3.7219,0,0,0,0,0,0,0,0,0,0,0,-3.7071,-3.7072,-3.7073,-3.7079,-3.7132,-3.7132,-3.7218,-3.7171,0,0,0,0,0,0,0,0,0,0,-3.7117,-3.7121,-3.7072,-3.7073,-3.7079,-3.7132,-3.7132,-3.7169,-3.7174,-3.7202,0,-3.7228,0,-3.7225,-3.7226,-3.7227,0,0,0,-3.7071,-3.7116,-3.7122,-3.7073,-3.708,-3.7132,-3.7106,-3.7172,-3.7178,-3.7209,-3.7229,-3.7232,-3.7227,-3.7227,-3.7227,-3.741,-3.7411,0,0,-3.7068,-3.7086,-3.7118,-3.7126,-3.7118,-3.7104,-3.7107,-3.7175,-3.7198,-3.723,-3.7234,-3.7228,-3.7228,-3.7228,-3.7409,-3.7411,0,0,0,-3.7065,-3.7084,-3.7088,-3.7123,-3.7131,-3.7106,-3.711,-3.7195,-3.7195,-3.7235,-3.7229,-3.7228,-3.723,-3.7408,-3.741,-3.7485,0,0,0,-3.7063,-3.7082,-3.7087,-3.7099,-3.7131,-3.7164,-3.7129,-3.719,-3.7197,-3.7229,-3.7228,-3.7231,-3.7406,-3.7409,-3.748,-3.7517,0,0,0,-3.7064,-3.7082,-3.7094,-3.7099,-3.7123,-3.7162,-3.7165,-3.7191,-3.7195,-3.7227,-3.7231,-3.7405,-3.7408,-3.7476,-3.7509,-3.7569,0,0,0,-3.7071,-3.716,-3.7095,-3.7193,-3.7123,-3.7209,-3.7165,-3.7229,-3.7265,-3.7229,-3.7407,-3.7409,-3.7474,-3.7505,-3.7565,-3.7621,-3.7646,0,0,-3.7193,-3.7175,-3.7231,-3.7175,-3.7277,-3.72,-3.7314,-3.7331,-3.7318,-3.7381,-3.7385,-3.7482,-3.7509,-3.7568,-3.7789,-3.781,0,0,0,-3.7276,-3.7316,-3.734,-3.7376,-3.7391,-3.7408,-3.7406,-3.7412,-3.7465,-3.7354,-3.752,-3.7536,-3.757,-3.7596,-3.7613,-3.7641,-3.7423,-3.7423,-3.7422,-3.7471,-3.7451,-3.7542,-3.7529,-3.7566,-3.7564,-3.7591,-3.76,-3.7569,-3.7609,-3.7626,-3.7763,-3.7794,-3.7807,-3.7836,-3.7657,-3.7657,-3.7657,-3.7658,-3.7645,-3.7698,-3.7658,-3.7731,-3.771,-3.7772,-3.7776,-3.7752,-3.7807,-3.7748,-3.7777,-3.771,-3.783,-3.7854,-3.7663,-3.7662,-3.7661,-3.7661,-3.766,-3.7768,-3.779,-3.7798,-3.785,-3.7893,-3.7878,-3.7933,-3.7913,-3.7894,-3.7923,-3.7939,-3.7937,-3.7932,-3.7933,-3.7933,-3.7934,-3.7934,-3.7935,-3.7935,-3.7891,-3.7898,-3.7946,-3.7973,-3.7995,-3.8021,-3.8024,-3.8045,-3.8063,-3.8044,-3.8044,-3.8008,-3.7847,-3.7804,-3.7942,-3.7941,-3.794,-3.7939,-3.7939,-3.8069,-3.8026,-3.8101,-3.8123,-3.8154,-3.8199,-3.8174,-3.822,-3.8235,-3.8263,-3.8223,-3.8108,-3.8088,-3.8074,-3.8038,-3.8228,-3.8228,-3.8228,-3.8228,-3.817,-3.816,-3.8232,-3.8269,-3.8303,-3.8289,-3.8376,-3.8381,-3.8379,-3.8388,-3.8359,-3.8312,-3.8299,-3.8286,-3.8268,-3.8234,-3.847,-3.847,-3.847,-3.8278,-3.827,-3.8346,-3.8344,-3.8369,-3.839,-3.8471,-3.8516,-3.8506,-3.848,-3.8394,-3.8384,-3.8308,-3.8285,-3.8251,-3.8223,-3.8161,0,0]},{"header":{"parameterUnit":"m.s-1","parameterCategory":1,"la1":30.2992,"la2":30.254,"lo1":-89.0895,"lo2":-89.0443,"dy":0.0025,"dx":0.0025,"nx":19,"ny":19,"refTime":"2026-05-15T21:00:00:Z","depth":0,"parameterNumber":3,"parameterNumberName":"V-component_of_WINDS"},"data":[0,0,0,3.702,3.7019,3.7009,3.7009,3.6984,3.6984,0,0,0,0,0,0,0,0,0,0,0,3.7018,3.7018,3.702,3.7019,3.7009,3.7009,3.6984,3.6984,0,0,0,0,0,0,0,0,0,0,0,3.7018,3.7018,3.7017,3.7019,3.7009,3.7009,3.6984,3.6996,0,0,0,0,0,0,0,0,0,0,3.7008,3.7001,3.7018,3.7017,3.7019,3.7009,3.7009,3.6997,3.6995,3.6985,0,3.6976,0,3.698,3.6982,3.6982,0,0,0,3.7023,3.7003,3.7005,3.7017,3.7019,3.7009,3.7014,3.6996,3.6994,3.6983,3.6976,3.6975,3.6979,3.6982,3.6981,3.6917,3.6916,0,0,3.7023,3.7013,3.7006,3.7003,3.7006,3.7015,3.7014,3.6995,3.6986,3.6976,3.6975,3.6979,3.6981,3.6981,3.6917,3.6917,0,0,0,3.7023,3.7013,3.7016,3.7004,3.7003,3.7014,3.7014,3.6986,3.6988,3.6974,3.6979,3.6981,3.6981,3.6918,3.6917,3.6885,0,0,0,3.7023,3.7013,3.7016,3.7009,3.7003,3.6995,3.7005,3.699,3.6988,3.6979,3.6981,3.698,3.6918,3.6917,3.6887,3.6871,0,0,0,3.702,3.7012,3.7009,3.7008,3.7004,3.6996,3.6997,3.699,3.699,3.6982,3.698,3.6919,3.6918,3.6889,3.6874,3.6852,0,0,0,3.7013,3.698,3.7009,3.6973,3.7004,3.6977,3.6997,3.6977,3.6966,3.6981,3.6918,3.6917,3.689,3.6876,3.6853,3.683,3.682,0,0,3.6965,3.6973,3.6953,3.6979,3.6945,3.6979,3.694,3.6938,3.6946,3.6926,3.6924,3.6887,3.6874,3.6852,3.6767,3.6759,0,0,0,3.6934,3.692,3.6913,3.6903,3.6903,3.6901,3.6908,3.6907,3.6891,3.6934,3.6873,3.6866,3.6853,3.6843,3.6836,3.6825,3.6912,3.6912,3.6912,3.6849,3.6864,3.6831,3.6844,3.6834,3.6842,3.6835,3.6836,3.6851,3.6837,3.683,3.6777,3.6764,3.6759,3.6748,3.682,3.682,3.682,3.682,3.6779,3.6761,3.6785,3.6762,3.6776,3.6757,3.6763,3.6775,3.6758,3.6783,3.6772,3.6797,3.675,3.6741,3.6817,3.6818,3.6818,3.6818,3.6818,3.6725,3.6719,3.6721,3.6709,3.6698,3.6712,3.6696,3.6709,3.6721,3.6711,3.6706,3.6706,3.6708,3.6708,3.6708,3.6708,3.6707,3.6707,3.6707,3.6667,3.6671,3.6656,3.6655,3.6651,3.6647,3.6656,3.6652,3.6651,3.6662,3.6662,3.6679,3.6743,3.6759,3.6704,3.6705,3.6705,3.6705,3.6706,3.659,3.661,3.6587,3.6584,3.6584,3.6572,3.6591,3.6582,3.6581,3.6572,3.6592,3.6637,3.6646,3.6652,3.6665,3.6589,3.6589,3.6589,3.6589,3.6544,3.6551,3.6531,3.6525,3.652,3.6535,3.6508,3.6515,3.6524,3.6524,3.6538,3.6556,3.6561,3.6567,3.6575,3.6587,3.6493,3.6493,3.6493,3.6497,3.6504,3.6479,3.6491,3.6493,3.6493,3.6468,3.6459,3.6474,3.6489,3.6525,3.6529,3.6559,3.6568,3.6583,3.6594,3.6617,0,0]}]]